Regional Weather Roundup
Issued by NWS Sterling, VA

Home | Current Version | Previous Version | Text Only | Print | Product List | Glossary Off
Versions: 1 2 3 4 5 6 7 8 9 10 11 12 13 14 15 16 17 18 19 20 21 22 23 24 25 26 27

000
ASUS41 KLWX 240811
RWRLWX

REGIONAL WEATHER ROUNDUP
NATIONAL WEATHER SERVICE BALTIMORE MD/WASHINGTON DC
400 AM EDT SAT JUN 24 2017

Note: "FAIR" indicates few or no clouds below 12,000 feet
with no significant weather and/or obstructions to visibility.
 TC=TEMPERATURE CELSIUS

 * =Non NWS site. Station does not report precipitation (e.g. rain,
    snow, etc.), thunder, or fog.

DCZ001-MDZ009-015-VAZ040>042-051-053>054-240900-
WASHINGTON METRO

CITY           SKY/WX    TMP DP  RH WIND       PRES   REMARKS
WASHINGTON NAT CLOUDY    80  75  84 S14       29.58F
DULLES         CLOUDY    75  71  87 S9        29.58F
ANDREWS AFB    CLOUDY    76  73  89 S12       29.59F
FT BELVOIR     CLOUDY    79  72  80 S7        29.58F
QUANTICO       LGT RAIN  83  75  77 SW15G28   29.59F HX  90
COLLEGE PARK*  CLOUDY    76  72  89 S3        29.58F
LEESBURG*      HVY RAIN N/A N/A N/A NW17G26   29.63R
MANASSAS*      LGT RAIN  76  73  91 S7        29.60F
GAITHERSBURG*  CLOUDY    74  73  97 SE8       29.59F

$$

MDZ006>007-011-014-240900-
BALTIMORE METRO

CITY           SKY/WX    TMP DP  RH WIND       PRES   REMARKS
BWI AIRPORT    LGT RAIN  75  74  96 SE5       29.58F
MD SCIENCE CTR   N/A     78  74  87 MISG      29.58F
MARTIN STATE   LGT RAIN  77  73  88 SE6       29.61F
ANNAPOLIS      LGT RAIN  77  76  96 S7        29.59F
FORT MEADE*    CLOUDY    73  72  94 SE3       29.61F

$$

MDZ012-015-019>023-240900-
MARYLAND EASTERN SHORE

CITY           SKY/WX    TMP DP  RH WIND       PRES   REMARKS
OCEAN CITY     MOCLDY    77  75  93 SW12G21   29.70F
SALISBURY      CLOUDY    80  76  87 S17G23    29.67F
BAY BRIDGE AP* RAIN      77  73  88 S9        29.60F FOG
CAMBRIDGE*     MOCLDY    81  73  78 S13G22    29.64F
EASTON*        CLOUDY    82  73  72 SW16      29.66F

$$

MDZ017>025-240900-
SOUTHERN MARYLAND

CITY           SKY/WX    TMP DP  RH WIND       PRES   REMARKS
PATUXENT RIVER CLOUDY    81  74  79 S13G30    29.63F
ST INIGOES     CLOUDY    82  75  79 S17G26    29.63F
LEONARDTOWN*   CLOUDY    81  72  74 SW13G20   29.65F

$$

MDZ003>005-240900-
NORTH CENTRAL MARYLAND

CITY           SKY/WX    TMP DP  RH WIND       PRES   REMARKS
FREDERICK*     NOT AVBL
HAGERSTOWN APT CLOUDY    71  69  93 NW8       29.66R
WESTMINSTER*   RAIN      73  72  94 CALM      29.60F

$$

MDZ501>502-240900-
WESTERN MARYLAND

CITY           SKY/WX    TMP DP  RH WIND       PRES   REMARKS
OAKLAND*       NOT AVBL
CUMBERLAND*    PTCLDY    72  64  78 CALM      29.75R

$$

VAZ025>031-240900-
SHENANDOAH VALLEY

CITY           SKY/WX    TMP DP  RH WIND       PRES   REMARKS
WINCHESTER*    DRIZZLE   68  68 100 NW10      29.69R
FRONT ROYAL*   CLOUDY    70  70 100 NW3       29.68R
LURAY*         CLOUDY    70  70 100 CALM      29.69R
NEW MARKET*    CLOUDY    72  66  82 CALM      29.72R
STAUNTON*      CLOUDY    68  67  96 CALM      29.75R
WAYNESBORO*    MOCLDY    69  66  89 W5        29.73R

$$

WVZ021-048>050-054>055-240900-
EASTERN WEST VIRGINIA PANHANDLE

CITY           SKY/WX    TMP DP  RH WIND       PRES   REMARKS
MARTINSBURG    LGT RAIN  70  67  90 NW9       29.67R
PETERSBURG*    MOCLDY    71  65  82 NW9       29.76R

$$

VAZ036>039-050-240900-
CENTRAL FOOTHILLS

CITY           SKY/WX    TMP DP  RH WIND       PRES   REMARKS
CHARLOTTESVILL CLOUDY    77  72  84 SW7       29.65R
CULPEPER*      CLOUDY    77  73  88 SW8       29.61R
ORANGE*        CLOUDY    77  72  83 SW15G21   29.63R
GORDONSVILLE*  CLOUDY    79  73  80 SW9G29    29.65R
WARRENTON*     CLOUDY    77  71  82 SW9       29.60R

$$

VAZ055>057-240900-
NORTH AND CENTRAL PIEDMONT

CITY           SKY/WX    TMP DP  RH WIND       PRES   REMARKS
FREDERICKSBRG* RAIN      81  74  80 S12G21    29.60S
STAFFORD*      CLOUDY    81  73  75 S13G22    29.63F

$$

NCZ024-NYZ072-PAZ021-071-VAZ022-071-240900-
OTHER REGIONAL OBSERVATIONS

CITY           SKY/WX    TMP DP  RH WIND       PRES   REMARKS
NEW YORK CITY  CLOUDY    72  71  97 VRB3      29.63F
PHILADELPHIA   CLOUDY    82  70  66 SW13      29.61F
PITTSBURGH     CLOUDY    67  67 100 W12       29.75R
ROANOKE        CLOUDY    70  63  78 W5        29.84R
RICHMOND       CLOUDY    82  74  76 SW26G36   29.66F
RALEIGH        LGT RAIN  78  75  90 SW14      29.84R

$$

ANZ530>537-240900-
MARINE OBSERVATIONS

STATION/POSITION TIME  TEMP    WIND        PRES
                       AIR SEA DIR/SP/G
                 (UTC) (F)     (DEG/KT/KT) (MB)
THOMAS PT LIGHT  0800   80 78  180/ 18/ 19   N/A
BALT KEY BRIDGE  0748   78     170/  7/  9 1001.6F
COVE POINT       0748   81     200/ 20/ 24 1003.8F
LEWISETTA        0748   82 78  230/ 17/ 24 1003.6F
SOLOMONS ISLAND  0748   81 77  200/ 16/ 21   N/A
PINEY POINT      0748          230/ 22/ 31   N/A

$$





USA.gov is the U.S. government's official web portal to all federal, state and local government web resources and services.